[[{"header":{"parameterUnit":"m.s-1","parameterCategory":2,"la1":30.2991,"la2":30.254,"lo1":-89.0895,"lo2":-89.0444,"dy":0.0017,"dx":0.0017,"nx":28,"ny":28,"refTime":"2025-03-19T21:00:00:Z","depth":"0","parameterNumber":2,"parameterNumberName":"U-component_of_CURRENTS"},"data":[0,0,0,0,0,0,0,0,0,0,0,0,0,0,0,0,0,0,0,0,0,0,0,0,0,0,0,0,0,0,0,0,0,0,0,0,0,0,0,0,0,0,0,0,0,0,0,0,0,0,0,0,0,0,0,0,0,0,-0.2934,-0.2935,0,-0.3075,-0.3077,-0.3079,-0.3027,-0.3024,-0.3021,-0.3017,-0.3247,-0.3256,-0.3265,0,0,0,0,0,0,0,0,0,0,0,0,0,-0.2831,-0.2832,-0.2934,-0.2936,-0.2937,-0.3075,-0.3077,-0.3079,-0.3028,-0.3024,-0.302,-0.3016,-0.3244,-0.3255,-0.3266,0,0,0,0,0,0,0,0,0,0,0,0,0,-0.2916,-0.2833,-0.2934,-0.2926,-0.2927,-0.3075,-0.3077,-0.308,-0.3029,-0.3024,-0.3019,-0.3014,-0.324,-0.3254,-0.3267,-0.3456,0,0,-0.331,-0.3316,0,0,0,0,0,0,0,0,-0.2911,-0.292,-0.2926,-0.2927,-0.2928,-0.3026,-0.3125,-0.3209,-0.303,-0.2993,-0.3017,-0.3011,-0.3184,-0.3202,-0.3242,-0.3467,-0.3476,-0.3311,-0.332,-0.3326,-0.333,0,0,0,0,0,0,0,-0.2905,-0.2915,-0.2992,-0.2928,-0.2929,-0.2988,-0.2993,-0.3142,-0.3119,-0.2996,-0.2992,-0.3005,-0.3184,-0.3229,-0.3247,-0.348,-0.3311,-0.3323,-0.3332,-0.3337,-0.3599,-0.3598,0,0,0,0,0,0,-0.2878,-0.2909,-0.2988,-0.2996,-0.2904,-0.2993,-0.2999,-0.3002,-0.3115,-0.3126,-0.3009,-0.3002,-0.3207,-0.3231,-0.3255,-0.3322,-0.3326,-0.3339,-0.3347,-0.36,-0.3599,-0.3597,0,0,0,0,0,0,-0.2875,-0.2884,-0.2982,-0.2954,-0.297,-0.2998,-0.3004,-0.3007,-0.3026,-0.3124,-0.3136,-0.302,-0.3204,-0.3236,-0.3376,-0.3336,-0.3345,-0.3358,-0.3602,-0.36,-0.3598,-0.3562,0,0,0,0,0,0,-0.2872,-0.2882,-0.2879,-0.2952,-0.2971,-0.305,-0.3009,-0.3014,-0.3043,-0.3034,-0.314,-0.3156,-0.3203,-0.3355,-0.339,-0.3356,-0.3369,-0.3604,-0.3601,-0.3599,-0.3565,-0.3559,-0.3554,0,0,0,0,0,-0.2867,-0.2879,-0.2878,-0.2888,-0.2964,-0.3051,-0.3068,-0.3073,-0.3048,-0.3069,-0.3142,-0.3151,-0.3356,-0.3371,-0.341,-0.3378,-0.3605,-0.3602,-0.3599,-0.3568,-0.356,-0.3554,0,0,0,0,0,0,-0.2835,-0.2878,-0.2877,-0.29,-0.2961,-0.304,-0.3063,-0.3082,-0.316,-0.3146,-0.3223,-0.3249,-0.3332,-0.3378,-0.339,-0.343,-0.3449,-0.3454,-0.3411,-0.3405,-0.34,-0.3354,-0.338,0,0,0,0,0,-0.283,-0.2841,-0.2907,-0.2926,-0.2953,-0.3014,-0.305,-0.3061,-0.3139,-0.3162,-0.3242,-0.3299,-0.3361,-0.3402,-0.3481,-0.3579,-0.3565,-0.355,-0.3544,-0.3539,-0.3521,-0.3473,-0.3461,-0.3587,-0.3587,-0.3587,0,0,-0.2824,-0.2849,-0.2855,-0.292,-0.2964,-0.3016,-0.3022,-0.3074,-0.3102,-0.319,-0.3265,-0.3326,-0.3388,-0.3452,-0.3485,-0.3484,-0.3498,-0.3535,-0.3532,-0.3516,-0.3468,-0.3456,-0.3445,-0.3585,-0.3585,-0.3585,0,0,-0.2832,-0.284,-0.2859,-0.291,-0.2974,-0.3016,-0.3028,-0.3115,-0.3126,-0.3245,-0.3257,-0.3295,-0.3452,-0.3439,-0.3462,-0.3485,-0.3484,-0.3485,-0.3426,-0.3379,-0.3368,-0.3359,-0.3337,-0.3325,-0.3466,-0.3466,-0.3466,0,-0.2821,-0.2849,-0.2885,-0.2927,-0.2959,-0.3009,-0.305,-0.3094,-0.3212,-0.3225,-0.3249,-0.3363,-0.3422,-0.3429,-0.3409,-0.3468,-0.3459,-0.3456,-0.3372,-0.3362,-0.3352,-0.3332,-0.332,-0.3464,-0.3464,-0.3464,-0.3464,0,-0.2852,-0.2877,-0.2898,-0.2949,-0.2994,-0.3042,-0.3098,-0.3139,-0.317,-0.3205,-0.3245,-0.3323,-0.336,-0.336,-0.3413,-0.3351,-0.3373,-0.3386,-0.3391,-0.3338,-0.332,-0.3308,-0.3461,-0.3461,-0.3462,-0.3463,0,0,-0.282,-0.2901,-0.2905,-0.2926,-0.3004,-0.3045,-0.3082,-0.3128,-0.3129,-0.32,-0.3202,-0.3257,-0.3263,-0.3282,-0.3308,-0.3263,-0.3201,-0.3295,-0.3293,-0.3276,-0.3118,-0.3014,-0.2991,-0.3207,-0.3204,-0.3202,-0.3137,0,-0.2832,-0.2893,-0.2932,-0.2984,-0.3019,-0.3062,-0.3094,-0.3129,-0.3166,-0.3191,-0.3184,-0.3221,-0.3238,-0.3255,-0.3206,-0.323,-0.3166,-0.3218,-0.3168,-0.3166,-0.3082,-0.2971,-0.2863,-0.2784,-0.3125,-0.3123,-0.3122,0,-0.2843,-0.2882,-0.293,-0.2985,-0.3002,-0.3034,-0.3061,-0.3101,-0.3121,-0.3148,-0.3139,-0.3169,-0.3132,-0.3151,-0.3088,-0.313,-0.3103,-0.3096,-0.3094,-0.2994,-0.3037,-0.2888,-0.2749,-0.2732,-0.3104,-0.3105,-0.3106,0,-0.2793,-0.2872,-0.2899,-0.2925,-0.3002,-0.3009,-0.3039,-0.3072,-0.3089,-0.3106,-0.3121,-0.3094,-0.3093,-0.3045,-0.3037,-0.3066,-0.2963,-0.3002,-0.2867,-0.2862,-0.2753,-0.274,-0.2584,-0.29,-0.29,-0.29,-0.29,0,-0.2783,-0.2803,-0.2874,-0.2892,-0.2906,-0.2971,-0.2977,-0.3008,-0.304,-0.3042,-0.3081,-0.3073,-0.3064,-0.3026,-0.3005,-0.2888,-0.2925,-0.2816,-0.281,-0.2738,-0.2725,-0.2693,-0.2742,-0.2897,-0.2898,-0.2898,-0.2899,0,-0.272,-0.2776,-0.2807,-0.2872,-0.2885,-0.2889,-0.2936,-0.2937,-0.2991,-0.2995,-0.3,-0.304,-0.2986,-0.2958,-0.2893,-0.2833,-0.2694,-0.2695,-0.2619,-0.2601,-0.2436,-0.2488,-0.2335,-0.2265,-0.252,-0.2517,-0.2514,0,-0.2689,-0.2701,-0.2762,-0.2762,-0.2786,-0.2805,-0.2811,-0.2887,-0.29,-0.2965,-0.2957,-0.2936,-0.2882,-0.2752,-0.2644,-0.2525,-0.2555,-0.2363,-0.2361,-0.2356,-0.2413,-0.2469,-0.2427,-0.2227,-0.2222,-0.2218,-0.2215,0,-0.2611,-0.2632,-0.2647,-0.2657,-0.2664,-0.2679,-0.2704,-0.2714,-0.2799,-0.2812,-0.2818,-0.2784,-0.2673,-0.2499,-0.2348,-0.2273,-0.2302,-0.2271,-0.2275,-0.2142,-0.2184,-0.2139,-0.2383,-0.2178,-0.2182,-0.2185,-0.2187,-0.2188,-0.2518,-0.2506,-0.2521,-0.2513,-0.2527,-0.2522,-0.2477,-0.2532,-0.2533,-0.2521,-0.2611,-0.2523,-0.2413,-0.2172,-0.2081,-0.1904,-0.2004,-0.1859,-0.1921,-0.1976,-0.1886,-0.2041,-0.1822,-0.1824,-0.1825,-0.1826,-0.1827,0,-0.2387,-0.238,-0.237,-0.2352,-0.2303,-0.2367,-0.2369,-0.2303,-0.225,-0.2295,-0.2265,-0.2182,-0.1986,-0.19,-0.1719,-0.1609,-0.1585,-0.1582,-0.1654,-0.1623,-0.1747,-0.1708,-0.1442,-0.1442,-0.1442,-0.1442,-0.1442,-0.1442,-0.2312,-0.2252,-0.225,-0.2121,-0.2101,-0.1986,-0.195,-0.1898,-0.1891,-0.1812,-0.1802,-0.184,-0.1783,-0.1818,-0.1627,-0.152,-0.1504,-0.1445,-0.1486,-0.1617,-0.1649,-0.168,-0.165,-0.1377,-0.1377,-0.1295,-0.1294,-0.1294]},{"header":{"parameterUnit":"m.s-1","parameterCategory":2,"la1":30.2991,"la2":30.254,"lo1":-89.0895,"lo2":-89.0444,"dy":0.0017,"dx":0.0017,"nx":28,"ny":28,"refTime":"2025-03-19T21:00:00:Z","depth":"0","parameterNumber":3,"parameterNumberName":"V-component_of_CURRENTS"},"data":[0,0,0,0,0,0,0,0,0,0,0,0,0,0,0,0,0,0,0,0,0,0,0,0,0,0,0,0,0,0,0,0,0,0,0,0,0,0,0,0,0,0,0,0,0,0,0,0,0,0,0,0,0,0,0,0,0,0,-0.0441,-0.0441,0,-0.0358,-0.0357,-0.0356,-0.0289,-0.0289,-0.0288,-0.0288,0.0045,0.0053,0.0061,0,0,0,0,0,0,0,0,0,0,0,0,0,-0.0467,-0.0467,-0.0442,-0.0441,-0.044,-0.0358,-0.0357,-0.0356,-0.0289,-0.0289,-0.0288,-0.0287,0.0042,0.0052,0.0062,0,0,0,0,0,0,0,0,0,0,0,0,0,-0.0427,-0.0467,-0.0442,-0.0397,-0.0393,-0.0359,-0.0357,-0.0355,-0.029,-0.0289,-0.0288,-0.0287,0.0039,0.0051,0.0063,0.0122,0,0,0.0101,0.0107,0,0,0,0,0,0,0,0,-0.0429,-0.0426,-0.0405,-0.04,-0.0395,-0.0334,-0.0244,-0.0184,-0.029,-0.0328,-0.0288,-0.0287,-0.006,-0.0039,-0.0028,0.0138,0.0152,0.0102,0.011,0.0115,0.0119,0,0,0,0,0,0,0,-0.0432,-0.0428,-0.0408,-0.0404,-0.0398,-0.0355,-0.0349,-0.0233,-0.0195,-0.0324,-0.032,-0.0312,-0.0055,-0.0041,-0.0019,0.0157,0.0102,0.0113,0.0121,0.0126,0.0579,0.0584,0,0,0,0,0,0,-0.0449,-0.0432,-0.041,-0.0405,-0.0411,-0.0356,-0.0349,-0.0354,-0.0201,-0.0179,-0.0313,-0.0309,-0.0062,-0.0034,-0.0007,0.013,0.0115,0.0127,0.0134,0.0575,0.058,0.0585,0,0,0,0,0,0,-0.045,-0.0449,-0.0414,-0.0416,-0.0409,-0.0357,-0.0362,-0.0353,-0.0335,-0.0195,-0.0168,-0.0305,-0.006,-0.0024,0.0131,0.0142,0.0132,0.0144,0.0569,0.0577,0.0583,0.0368,0,0,0,0,0,0,-0.0452,-0.045,-0.0456,-0.0418,-0.0409,-0.0402,-0.0363,-0.0352,-0.0332,-0.0326,-0.0179,-0.0148,-0.0057,0.0112,0.0143,0.0159,0.0154,0.0564,0.0573,0.0581,0.0369,0.0367,0.0365,0,0,0,0,0,-0.0453,-0.0472,-0.0457,-0.0454,-0.0421,-0.0403,-0.0395,-0.0353,-0.0333,-0.0332,-0.0201,-0.0152,0.0191,0.0124,0.0161,0.018,0.0559,0.057,0.058,0.037,0.0367,0.0365,0,0,0,0,0,0,-0.0482,-0.0466,-0.0449,-0.046,-0.0435,-0.0392,-0.0388,-0.036,-0.0267,-0.0248,-0.0113,-0.0072,0.0078,0.0184,0.0108,0.0355,0.0392,0.041,0.0221,0.0219,0.0217,0.0099,0.0164,0,0,0,0,0,-0.0494,-0.0504,-0.0475,-0.0482,-0.0476,-0.0433,-0.0418,-0.0395,-0.0313,-0.0276,-0.0166,-0.0008,0.0149,0.0221,0.0372,0.0482,0.0521,0.0539,0.0536,0.0532,0.0474,0.0521,0.0512,0.0619,0.0619,0.0619,0,0,-0.0505,-0.0497,-0.0501,-0.0488,-0.0466,-0.0464,-0.0422,-0.0413,-0.0391,-0.0245,-0.0161,-0.0016,0.0187,0.032,0.0397,0.0401,0.0542,0.0545,0.0538,0.0482,0.053,0.0518,0.0506,0.0626,0.0625,0.0624,0,0,-0.0542,-0.053,-0.0553,-0.0542,-0.0522,-0.0492,-0.0494,-0.0448,-0.0408,-0.0309,-0.0176,-0.0052,0.0184,0.029,0.0391,0.0472,0.0535,0.0571,0.0434,0.0481,0.0467,0.0456,0.0527,0.0523,0.0554,0.0553,0.0553,0,-0.0555,-0.0581,-0.0554,-0.0572,-0.0565,-0.051,-0.0526,-0.0479,-0.0381,-0.0343,-0.0291,0.0008,0.0154,0.03,0.0329,0.0447,0.0499,0.04,0.0458,0.0449,0.044,0.0515,0.0514,0.0544,0.0545,0.0546,0.0547,0,-0.0609,-0.0626,-0.0639,-0.0641,-0.0626,-0.0634,-0.0575,-0.0539,-0.0474,-0.042,-0.0275,-0.0098,0.0066,0.0156,0.0259,0.0312,0.0379,0.0441,0.0414,0.0412,0.0498,0.05,0.0531,0.0535,0.0537,0.0539,0,0,-0.0649,-0.0675,-0.0678,-0.0695,-0.0667,-0.0664,-0.0625,-0.0579,-0.0556,-0.0452,-0.0408,-0.0188,-0.0132,-0.0014,0.0129,0.015,0.015,0.0243,0.025,0.0221,0.0265,0.0347,0.0359,0.0205,0.0204,0.0203,0.0355,0,-0.0698,-0.076,-0.0744,-0.0777,-0.0803,-0.0744,-0.0713,-0.0659,-0.0579,-0.0516,-0.0382,-0.0259,-0.0175,-0.0098,-0.0073,0.0129,0.0142,0.0103,0.0351,0.0358,0.0353,0.0358,0.0401,0.0542,0.0358,0.0358,0.0358,0,-0.0755,-0.079,-0.0847,-0.0859,-0.0862,-0.0861,-0.0815,-0.078,-0.068,-0.0615,-0.0533,-0.0408,-0.0313,-0.0252,-0.006,-0.0084,0.0042,0.0156,0.0167,0.0296,0.0441,0.0523,0.0553,0.0727,0.0362,0.0362,0.0361,0,-0.0812,-0.0855,-0.0905,-0.0912,-0.0913,-0.0912,-0.0894,-0.0817,-0.0783,-0.0688,-0.0649,-0.052,-0.0418,-0.0294,-0.0053,-0.0058,0.0149,0.0198,0.0378,0.0389,0.0497,0.0518,0.0635,0.0263,0.0262,0.0262,0.0262,0,-0.0877,-0.0915,-0.0941,-0.0973,-0.1014,-0.0981,-0.099,-0.0946,-0.0877,-0.0841,-0.0718,-0.0645,-0.0437,-0.0269,-0.0094,0.0162,0.0129,0.0326,0.0415,0.0441,0.0454,0.0672,0.0744,0.0268,0.0267,0.0265,0.0264,0,-0.0938,-0.0956,-0.1018,-0.1042,-0.1051,-0.1078,-0.1069,-0.1066,-0.0991,-0.0939,-0.0914,-0.0727,-0.0497,-0.0268,0.0,0.0147,0.0491,0.0461,0.0489,0.0574,0.0874,0.0933,0.1134,0.1247,0.0659,0.0661,0.0664,0,-0.0977,-0.102,-0.108,-0.1118,-0.1136,-0.1167,-0.1183,-0.1131,-0.1114,-0.0973,-0.0947,-0.0723,-0.053,-0.0101,0.0193,0.0511,0.0638,0.0721,0.0693,0.0867,0.1,0.104,0.1122,0.0789,0.0792,0.0794,0.0796,0,-0.1044,-0.1064,-0.1114,-0.1204,-0.1246,-0.1285,-0.1297,-0.1298,-0.1212,-0.113,-0.0964,-0.0797,-0.0373,0.0022,0.043,0.0618,0.0855,0.0782,0.0952,0.1076,0.1137,0.1299,0.0733,0.0818,0.0816,0.0815,0.0813,0.0812,-0.1079,-0.1135,-0.1202,-0.128,-0.1336,-0.1381,-0.1392,-0.1362,-0.1305,-0.114,-0.0976,-0.0667,-0.0132,0.0462,0.0676,0.1117,0.107,0.124,0.1294,0.1316,0.1418,0.0899,0.1088,0.1088,0.1087,0.1087,0.1086,0,-0.112,-0.1184,-0.127,-0.1358,-0.1422,-0.1433,-0.1446,-0.1405,-0.1312,-0.1106,-0.0889,-0.0262,0.027,0.075,0.1357,0.1604,0.1651,0.1729,0.1784,0.1841,0.1385,0.1383,0.1656,0.1656,0.1656,0.1656,0.1655,0.1655,-0.1143,-0.1236,-0.1287,-0.1404,-0.1459,-0.1496,-0.1491,-0.1394,-0.1234,-0.0843,-0.0468,-0.0161,0.0531,0.1447,0.2,0.206,0.2266,0.226,0.2373,0.2045,0.2002,0.1962,0.1978,0.237,0.2371,0.2816,0.282,0.2823]}],[{"header":{"parameterUnit":"m.s-1","parameterCategory":2,"la1":30.2991,"la2":30.254,"lo1":-89.0895,"lo2":-89.0444,"dy":0.0017,"dx":0.0017,"nx":28,"ny":28,"refTime":"2025-03-19T21:00:00:Z","depth":"2","parameterNumber":2,"parameterNumberName":"U-component_of_CURRENTS"},"data":[0,0,0,0,0,0,0,0,0,0,0,0,0,0,0,0,0,0,0,0,0,0,0,0,0,0,0,0,0,0,0,0,0,0,0,0,0,0,0,0,0,0,0,0,0,0,0,0,0,0,0,0,0,0,0,0,0,0,-0.2691,-0.2692,0,-0.2782,-0.2783,-0.2783,-0.274,-0.2738,-0.2736,-0.2734,-0.274,-0.2742,-0.2744,0,0,0,0,0,0,0,0,0,0,0,0,0,-0.2581,-0.2583,-0.269,-0.2692,-0.2693,-0.2782,-0.2783,-0.2784,-0.274,-0.2738,-0.2735,-0.2733,-0.2739,-0.2742,-0.2744,0,0,0,0,0,0,0,0,0,0,0,0,0,-0.2644,-0.2583,-0.269,-0.2684,-0.2684,-0.2781,-0.2783,-0.2784,-0.2741,-0.2738,-0.2734,-0.2731,-0.2738,-0.2741,-0.2745,-0.2829,0,0,-0.2754,-0.2756,0,0,0,0,0,0,0,0,-0.264,-0.2648,-0.2683,-0.2684,-0.2685,-0.2748,-0.2746,-0.2795,-0.2742,-0.2717,-0.2734,-0.273,-0.2738,-0.2741,-0.2764,-0.2829,-0.2829,-0.2755,-0.2757,-0.2758,-0.2759,0,0,0,0,0,0,0,-0.2636,-0.2644,-0.2724,-0.2685,-0.2686,-0.2712,-0.2716,-0.2756,-0.2741,-0.2719,-0.2717,-0.2731,-0.2737,-0.2761,-0.2763,-0.2829,-0.2755,-0.2757,-0.2759,-0.2761,-0.2827,-0.2827,0,0,0,0,0,0,-0.2628,-0.264,-0.2722,-0.2727,-0.2657,-0.2716,-0.272,-0.2729,-0.2743,-0.2743,-0.2734,-0.2729,-0.2757,-0.276,-0.2763,-0.2759,-0.2758,-0.2761,-0.2763,-0.2828,-0.2827,-0.2827,0,0,0,0,0,0,-0.2625,-0.2634,-0.2718,-0.2687,-0.27,-0.272,-0.2731,-0.2733,-0.2746,-0.2755,-0.2753,-0.2743,-0.2755,-0.2759,-0.2765,-0.2762,-0.2762,-0.2765,-0.2828,-0.2827,-0.2827,-0.2817,0,0,0,0,0,0,-0.2621,-0.2632,-0.2635,-0.2687,-0.2701,-0.2758,-0.2735,-0.2737,-0.2761,-0.2755,-0.2764,-0.2761,-0.2752,-0.276,-0.2768,-0.2767,-0.2768,-0.2828,-0.2828,-0.2827,-0.2817,-0.2816,-0.2815,0,0,0,0,0,-0.2617,-0.2631,-0.2635,-0.2645,-0.2705,-0.2759,-0.2768,-0.2771,-0.2765,-0.2771,-0.2761,-0.2761,-0.2763,-0.2764,-0.2773,-0.2772,-0.2828,-0.2828,-0.2827,-0.2818,-0.2816,-0.2815,0,0,0,0,0,0,-0.2584,-0.263,-0.2634,-0.266,-0.2699,-0.2751,-0.2766,-0.2782,-0.2789,-0.2777,-0.2775,-0.2773,-0.2768,-0.2782,-0.2783,-0.2787,-0.2791,-0.2793,-0.278,-0.278,-0.2779,-0.2792,-0.2771,0,0,0,0,0,-0.2583,-0.26,-0.2652,-0.2671,-0.2692,-0.2735,-0.2759,-0.2769,-0.2788,-0.2789,-0.2796,-0.2793,-0.2784,-0.2788,-0.2788,-0.2818,-0.2814,-0.2818,-0.2817,-0.2816,-0.2832,-0.2814,-0.2812,-0.2826,-0.2826,-0.2826,0,0,-0.2577,-0.2605,-0.2614,-0.2666,-0.2697,-0.2732,-0.274,-0.2779,-0.2796,-0.2792,-0.2806,-0.2796,-0.2788,-0.2788,-0.279,-0.2797,-0.2806,-0.2815,-0.2815,-0.2832,-0.2813,-0.2812,-0.2811,-0.2826,-0.2826,-0.2826,0,0,-0.258,-0.26,-0.2617,-0.2653,-0.2704,-0.2733,-0.2745,-0.2801,-0.2803,-0.2832,-0.2807,-0.2798,-0.2819,-0.2799,-0.2793,-0.2801,-0.2795,-0.2796,-0.2815,-0.2796,-0.2795,-0.2794,-0.2771,-0.2768,-0.2803,-0.2803,-0.2803,0,-0.2569,-0.2598,-0.2632,-0.2664,-0.2691,-0.2732,-0.2762,-0.2787,-0.2831,-0.2836,-0.2824,-0.2828,-0.2821,-0.2808,-0.2796,-0.28,-0.2786,-0.2818,-0.2794,-0.2793,-0.2793,-0.277,-0.2767,-0.2803,-0.2803,-0.2803,-0.2803,0,-0.259,-0.2615,-0.2633,-0.2676,-0.271,-0.2745,-0.2787,-0.2811,-0.2825,-0.2844,-0.2841,-0.2833,-0.2831,-0.282,-0.2813,-0.2802,-0.2792,-0.2787,-0.2797,-0.2791,-0.2767,-0.2764,-0.2802,-0.2802,-0.2802,-0.2802,0,0,-0.2557,-0.263,-0.2634,-0.2654,-0.2718,-0.2748,-0.2779,-0.2816,-0.2829,-0.2851,-0.286,-0.2843,-0.2844,-0.2838,-0.2824,-0.2816,-0.2788,-0.2805,-0.2804,-0.2783,-0.2741,-0.2633,-0.262,-0.2774,-0.2774,-0.2774,-0.272,0,-0.2559,-0.2607,-0.2646,-0.2687,-0.2716,-0.2761,-0.2786,-0.2821,-0.2842,-0.2862,-0.2854,-0.2854,-0.2847,-0.284,-0.2831,-0.2803,-0.2783,-0.2803,-0.2752,-0.2751,-0.2656,-0.2613,-0.2433,-0.2361,-0.2718,-0.2717,-0.2717,0,-0.2558,-0.2593,-0.2632,-0.269,-0.2706,-0.2733,-0.2775,-0.2806,-0.2841,-0.2856,-0.2865,-0.2866,-0.2861,-0.2851,-0.2812,-0.2824,-0.2785,-0.2762,-0.2759,-0.2666,-0.2637,-0.2429,-0.2343,-0.2712,-0.2712,-0.2713,-0.2713,0,-0.2508,-0.2577,-0.2602,-0.2625,-0.27,-0.2715,-0.2748,-0.2794,-0.2814,-0.2851,-0.2864,-0.2867,-0.2858,-0.283,-0.2789,-0.2799,-0.2736,-0.2739,-0.2604,-0.2597,-0.2438,-0.2416,-0.2699,-0.2699,-0.2699,-0.2699,-0.2699,0,-0.2488,-0.2506,-0.2579,-0.2595,-0.2618,-0.2682,-0.2703,-0.2744,-0.2792,-0.2805,-0.2851,-0.285,-0.2852,-0.282,-0.2787,-0.2677,-0.2727,-0.2598,-0.257,-0.2426,-0.2405,-0.2715,-0.2718,-0.2697,-0.2697,-0.2698,-0.2698,0,-0.2421,-0.2476,-0.2505,-0.2576,-0.2594,-0.2607,-0.267,-0.2683,-0.2748,-0.2767,-0.2778,-0.2825,-0.2781,-0.2761,-0.2706,-0.2648,-0.2574,-0.2519,-0.2348,-0.23,-0.2453,-0.2456,-0.2368,-0.2364,-0.236,-0.2357,-0.2354,0,-0.2388,-0.2398,-0.2466,-0.2473,-0.25,-0.2533,-0.255,-0.2637,-0.2659,-0.2736,-0.2734,-0.2726,-0.2672,-0.2562,-0.2461,-0.2353,-0.2456,-0.2137,-0.2119,-0.2434,-0.2416,-0.2425,-0.2433,-0.1905,-0.1899,-0.1894,-0.189,0,-0.2308,-0.2334,-0.2352,-0.2374,-0.2393,-0.2417,-0.2456,-0.247,-0.2566,-0.2582,-0.2587,-0.2553,-0.2458,-0.2257,-0.2128,-0.2053,-0.2144,-0.203,-0.2386,-0.2017,-0.1993,-0.1977,-0.2001,-0.1846,-0.185,-0.1854,-0.1856,-0.1858,-0.2223,-0.2216,-0.2239,-0.2243,-0.227,-0.2271,-0.2233,-0.2289,-0.2291,-0.2274,-0.2363,-0.2242,-0.2203,-0.1892,-0.177,-0.1675,-0.1827,-0.1756,-0.1774,-0.1796,-0.1752,-0.1722,-0.1517,-0.1519,-0.1521,-0.1523,-0.1525,0,-0.2102,-0.2103,-0.2103,-0.2098,-0.2063,-0.213,-0.2137,-0.2069,-0.2008,-0.2024,-0.1982,-0.1752,-0.1592,-0.1558,-0.1331,-0.1273,-0.1281,-0.1229,-0.1254,-0.1298,-0.1337,-0.1272,-0.0908,-0.0906,-0.0905,-0.0903,0,0,-0.2035,-0.1987,-0.1987,-0.1883,-0.1875,-0.1774,-0.174,-0.1673,-0.1641,-0.1522,-0.1452,-0.153,-0.1527,-0.1237,-0.1151,-0.0994,-0.1141,-0.0939,-0.1434,-0.1509,-0.1547,-0.1638,-0.1586,0,0,0,0,0]},{"header":{"parameterUnit":"m.s-1","parameterCategory":2,"la1":30.2991,"la2":30.254,"lo1":-89.0895,"lo2":-89.0444,"dy":0.0017,"dx":0.0017,"nx":28,"ny":28,"refTime":"2025-03-19T21:00:00:Z","depth":"2","parameterNumber":3,"parameterNumberName":"V-component_of_CURRENTS"},"data":[0,0,0,0,0,0,0,0,0,0,0,0,0,0,0,0,0,0,0,0,0,0,0,0,0,0,0,0,0,0,0,0,0,0,0,0,0,0,0,0,0,0,0,0,0,0,0,0,0,0,0,0,0,0,0,0,0,0,-0.0459,-0.0458,0,-0.0411,-0.041,-0.041,-0.035,-0.0349,-0.0348,-0.0347,-0.0249,-0.0247,-0.0246,0,0,0,0,0,0,0,0,0,0,0,0,0,-0.0472,-0.0473,-0.0459,-0.0458,-0.0457,-0.0411,-0.041,-0.041,-0.035,-0.0349,-0.0348,-0.0346,-0.0249,-0.0248,-0.0246,0,0,0,0,0,0,0,0,0,0,0,0,0,-0.0451,-0.0473,-0.0459,-0.0421,-0.0417,-0.0411,-0.041,-0.041,-0.0351,-0.0349,-0.0347,-0.0346,-0.025,-0.0248,-0.0245,-0.0263,0,0,-0.0238,-0.0237,0,0,0,0,0,0,0,0,-0.0452,-0.0451,-0.0427,-0.0424,-0.0419,-0.0383,-0.0379,-0.0358,-0.0351,-0.0378,-0.0347,-0.0345,-0.0289,-0.0284,-0.0281,-0.0259,-0.0254,-0.0238,-0.0236,-0.0235,-0.0235,0,0,0,0,0,0,0,-0.0454,-0.0452,-0.0441,-0.0427,-0.0422,-0.0397,-0.0393,-0.0375,-0.0344,-0.0375,-0.037,-0.0363,-0.0287,-0.0284,-0.0278,-0.0253,-0.0238,-0.0236,-0.0234,-0.0233,-0.019,-0.019,0,0,0,0,0,0,-0.046,-0.0454,-0.0443,-0.044,-0.043,-0.0398,-0.0393,-0.0398,-0.0345,-0.0335,-0.0364,-0.036,-0.0289,-0.0281,-0.0275,-0.0256,-0.0235,-0.0233,-0.0232,-0.019,-0.019,-0.0191,0,0,0,0,0,0,-0.0461,-0.046,-0.0445,-0.0444,-0.044,-0.04,-0.0405,-0.0398,-0.0386,-0.0337,-0.0326,-0.0359,-0.0287,-0.0278,-0.0264,-0.0253,-0.0232,-0.023,-0.019,-0.019,-0.019,-0.0242,0,0,0,0,0,0,-0.0462,-0.0461,-0.0467,-0.0445,-0.044,-0.0448,-0.0406,-0.0398,-0.0384,-0.0378,-0.0329,-0.0319,-0.0285,-0.0269,-0.0262,-0.0249,-0.0228,-0.0189,-0.019,-0.019,-0.024,-0.0244,-0.0248,0,0,0,0,0,-0.0463,-0.0483,-0.0468,-0.0466,-0.0449,-0.0448,-0.0445,-0.041,-0.0385,-0.0392,-0.0359,-0.032,-0.0266,-0.0268,-0.026,-0.0246,-0.0189,-0.019,-0.019,-0.0238,-0.0243,-0.0248,0,0,0,0,0,0,-0.0489,-0.0478,-0.0461,-0.0475,-0.0463,-0.0438,-0.044,-0.0416,-0.0397,-0.0389,-0.0337,-0.0326,-0.0306,-0.0278,-0.028,-0.0235,-0.0216,-0.0215,-0.0254,-0.0259,-0.0263,-0.0248,-0.0226,0,0,0,0,0,-0.0499,-0.051,-0.0492,-0.0502,-0.05,-0.047,-0.0464,-0.0445,-0.0424,-0.0413,-0.0376,-0.0337,-0.0306,-0.0285,-0.026,-0.0246,-0.0195,-0.0227,-0.0231,-0.0235,-0.0218,-0.0149,-0.0144,-0.0193,-0.0193,-0.0193,0,0,-0.0511,-0.0505,-0.051,-0.0508,-0.0495,-0.0504,-0.0463,-0.0463,-0.0454,-0.0407,-0.0387,-0.0357,-0.0309,-0.0288,-0.0274,-0.026,-0.0198,-0.0236,-0.0239,-0.022,-0.0149,-0.0144,-0.0139,-0.0193,-0.0193,-0.0193,0,0,-0.0548,-0.0537,-0.0562,-0.056,-0.055,-0.0531,-0.0533,-0.0512,-0.0484,-0.0475,-0.0428,-0.0387,-0.0357,-0.0304,-0.0276,-0.0286,-0.0227,-0.0285,-0.0284,-0.0218,-0.0213,-0.0208,-0.015,-0.0139,-0.0279,-0.0279,-0.0279,0,-0.056,-0.0589,-0.0568,-0.0592,-0.059,-0.0546,-0.0568,-0.054,-0.0513,-0.0487,-0.0475,-0.0396,-0.0352,-0.0297,-0.0296,-0.0289,-0.0254,-0.0272,-0.0222,-0.0215,-0.0209,-0.0151,-0.0138,-0.0282,-0.0281,-0.0281,-0.0281,0,-0.0618,-0.0637,-0.0653,-0.0663,-0.0658,-0.0673,-0.0633,-0.0615,-0.0576,-0.0538,-0.0483,-0.0426,-0.0371,-0.035,-0.0323,-0.0259,-0.025,-0.0241,-0.0209,-0.0207,-0.0146,-0.0132,-0.0285,-0.0284,-0.0284,-0.0283,0,0,-0.0654,-0.0688,-0.0692,-0.0709,-0.0698,-0.0703,-0.068,-0.0644,-0.0618,-0.0566,-0.0524,-0.0446,-0.0403,-0.0367,-0.0321,-0.025,-0.0176,-0.0232,-0.0227,-0.0172,-0.004,-0.0017,0.0001,-0.0169,-0.0166,-0.0164,-0.0019,0,-0.0703,-0.0769,-0.0761,-0.0801,-0.0829,-0.078,-0.0762,-0.0717,-0.0661,-0.0611,-0.0509,-0.0464,-0.0413,-0.0391,-0.0311,-0.0217,-0.014,-0.0216,-0.005,-0.0045,-0.0022,0.0018,-0.0011,0.0117,-0.0005,-0.0003,-0.0001,0,-0.0761,-0.0797,-0.0857,-0.0871,-0.0876,-0.0884,-0.0839,-0.0817,-0.0722,-0.0676,-0.0593,-0.0525,-0.041,-0.0376,-0.0183,-0.0243,-0.0139,-0.0057,-0.0049,0.0007,0.0006,0.0099,0.0148,0.0023,0.0021,0.0019,0.0018,0,-0.0808,-0.0857,-0.0906,-0.0917,-0.0925,-0.0925,-0.0912,-0.0839,-0.0812,-0.0715,-0.0684,-0.0547,-0.0479,-0.033,-0.0154,-0.0173,0.0058,0.0052,0.0179,0.0181,0.0212,0.0213,0.0205,0.0205,0.0205,0.0204,0.0204,0,-0.0868,-0.0906,-0.0937,-0.0969,-0.1006,-0.0983,-0.0987,-0.0946,-0.088,-0.0846,-0.0726,-0.0661,-0.0465,-0.0314,-0.0159,0.006,0.0061,0.0204,0.0232,0.019,0.0187,0.0148,0.0139,0.021,0.0209,0.0207,0.0207,0,-0.092,-0.0942,-0.1002,-0.1029,-0.1039,-0.1064,-0.1059,-0.1053,-0.098,-0.0932,-0.0906,-0.0735,-0.0535,-0.0327,-0.0074,0.0054,0.0256,0.0334,0.0269,0.0288,0.0335,0.0321,0.0491,0.0493,0.0495,0.0496,0.0498,0,-0.0955,-0.0996,-0.1056,-0.1094,-0.1113,-0.1143,-0.1159,-0.1111,-0.1095,-0.0969,-0.0945,-0.0749,-0.0588,-0.0209,0.0047,0.0331,0.0331,0.0461,0.0436,0.036,0.037,0.0353,0.0338,0.0452,0.0453,0.0454,0.0454,0,-0.1013,-0.1034,-0.1082,-0.1169,-0.121,-0.1248,-0.1262,-0.1263,-0.1188,-0.1116,-0.0978,-0.0838,-0.0479,-0.0167,0.0185,0.0346,0.0408,0.0484,0.0449,0.0373,0.0333,0.0339,0.0324,0.0461,0.046,0.046,0.0459,0.0459,-0.1043,-0.1094,-0.116,-0.1235,-0.129,-0.1336,-0.1348,-0.1326,-0.1281,-0.1139,-0.1009,-0.0752,-0.0476,0.0043,0.0287,0.0513,0.0503,0.0562,0.0556,0.0551,0.0509,0.0473,0.062,0.062,0.0621,0.0621,0.0621,0,-0.1079,-0.1139,-0.122,-0.1305,-0.1369,-0.1382,-0.1399,-0.1364,-0.1291,-0.1121,-0.0946,-0.06,-0.0251,0.0047,0.0407,0.0608,0.0587,0.0642,0.057,0.0563,0.0557,0.0512,0.0627,0.0627,0.0628,0.0628,0,0,-0.11,-0.1186,-0.1233,-0.1347,-0.1403,-0.1445,-0.1445,-0.1361,-0.1227,-0.1028,-0.0821,-0.0573,-0.0222,0.0032,0.0281,0.047,0.0466,0.0489,0.0463,0.0343,0.0334,0.049,0.0411,0,0,0,0,0]}],[{"header":{"parameterUnit":"m.s-1","parameterCategory":2,"la1":30.2991,"la2":30.254,"lo1":-89.0895,"lo2":-89.0444,"dy":0.0017,"dx":0.0017,"nx":28,"ny":28,"refTime":"2025-03-19T21:00:00:Z","depth":"4","parameterNumber":2,"parameterNumberName":"U-component_of_CURRENTS"},"data":[0,0,0,0,0,0,0,0,0,0,0,0,0,0,0,0,0,0,0,0,0,0,0,0,0,0,0,0,0,0,0,0,0,0,0,0,0,0,0,0,0,0,0,0,0,0,0,0,0,0,0,0,0,0,0,0,0,0,-0.1981,-0.1982,0,-0.2069,-0.207,-0.207,-0.2098,-0.2098,-0.2098,-0.2098,-0.2121,-0.2122,-0.2123,0,0,0,0,0,0,0,0,0,0,0,0,0,-0.1845,-0.1847,-0.1981,-0.1982,-0.1984,-0.2069,-0.207,-0.2071,-0.2098,-0.2098,-0.2098,-0.2098,-0.2121,-0.2122,-0.2123,0,0,0,0,0,0,0,0,0,0,0,0,0,-0.1912,-0.1847,-0.198,-0.201,-0.2014,-0.2069,-0.207,-0.2071,-0.2098,-0.2098,-0.2098,-0.2098,-0.2121,-0.2122,-0.2123,-0.2133,0,0,-0.2126,-0.2127,0,0,0,0,0,0,0,0,-0.1908,-0.1917,-0.2004,-0.2008,-0.2013,-0.2075,-0.2031,-0.209,-0.2099,-0.2063,-0.2098,-0.2098,-0.2102,-0.2105,-0.2118,-0.2134,-0.2135,-0.2126,-0.2127,-0.2128,-0.2128,0,0,0,0,0,0,0,-0.1904,-0.1913,-0.2012,-0.2006,-0.2011,-0.2022,-0.2031,-0.2042,-0.2079,-0.2066,-0.2069,-0.2084,-0.2103,-0.2117,-0.2119,-0.2136,-0.2126,-0.2127,-0.2128,-0.2128,-0.2138,-0.2137,0,0,0,0,0,0,-0.1899,-0.1909,-0.201,-0.2015,-0.1963,-0.2025,-0.2035,-0.2053,-0.208,-0.2086,-0.2084,-0.2085,-0.2115,-0.2117,-0.212,-0.215,-0.2128,-0.2129,-0.2129,-0.2138,-0.2138,-0.2137,0,0,0,0,0,0,-0.1896,-0.1908,-0.2006,-0.1966,-0.198,-0.2028,-0.2047,-0.2055,-0.2097,-0.2095,-0.2099,-0.2123,-0.2115,-0.2118,-0.2127,-0.215,-0.2129,-0.213,-0.2139,-0.2138,-0.2137,-0.2199,0,0,0,0,0,0,-0.1892,-0.1906,-0.1931,-0.1966,-0.1982,-0.2045,-0.2048,-0.2057,-0.2106,-0.2109,-0.2129,-0.2129,-0.2115,-0.2125,-0.2128,-0.2151,-0.2131,-0.2139,-0.2138,-0.2138,-0.2197,-0.22,-0.2203,0,0,0,0,0,-0.1887,-0.1914,-0.1932,-0.1945,-0.2011,-0.2046,-0.2055,-0.2085,-0.2109,-0.2124,-0.2127,-0.213,-0.2122,-0.2126,-0.2129,-0.2153,-0.2139,-0.2139,-0.2138,-0.2196,-0.22,-0.2203,0,0,0,0,0,0,-0.1867,-0.1921,-0.1941,-0.1984,-0.2018,-0.2052,-0.2081,-0.2107,-0.2128,-0.2138,-0.2133,-0.2133,-0.2142,-0.2136,-0.2141,-0.2147,-0.2129,-0.2128,-0.2172,-0.2175,-0.2178,-0.2201,-0.2132,0,0,0,0,0,-0.1876,-0.1913,-0.1956,-0.1992,-0.2014,-0.2057,-0.2084,-0.2107,-0.2127,-0.214,-0.2151,-0.215,-0.2138,-0.2149,-0.2135,-0.2156,-0.2147,-0.2167,-0.217,-0.2173,-0.219,-0.2193,-0.2199,-0.2134,-0.2134,-0.2134,0,0,-0.1882,-0.1915,-0.1939,-0.1992,-0.2025,-0.2055,-0.2073,-0.2122,-0.2148,-0.2137,-0.2176,-0.2164,-0.2141,-0.2147,-0.2152,-0.2151,-0.2181,-0.2172,-0.2175,-0.2191,-0.2193,-0.22,-0.2206,-0.2134,-0.2134,-0.2134,0,0,-0.1892,-0.194,-0.1968,-0.1999,-0.2055,-0.2078,-0.21,-0.215,-0.2175,-0.2203,-0.219,-0.2199,-0.2197,-0.2188,-0.2179,-0.2195,-0.2188,-0.2186,-0.2239,-0.2241,-0.2248,-0.2253,-0.2233,-0.2237,-0.2199,-0.2199,-0.2199,0,-0.1897,-0.1938,-0.198,-0.201,-0.2041,-0.2091,-0.2121,-0.2153,-0.2198,-0.222,-0.2217,-0.2226,-0.2216,-0.2224,-0.2222,-0.2208,-0.2197,-0.2233,-0.2249,-0.2254,-0.2259,-0.2237,-0.224,-0.2202,-0.2202,-0.2201,-0.2201,0,-0.1914,-0.1959,-0.198,-0.2032,-0.2068,-0.2106,-0.2151,-0.2193,-0.2231,-0.2257,-0.2287,-0.2275,-0.2282,-0.2276,-0.2258,-0.2285,-0.2261,-0.2247,-0.225,-0.227,-0.2244,-0.2247,-0.2206,-0.2205,-0.2204,-0.2203,0,0,-0.1887,-0.1975,-0.1984,-0.2016,-0.2087,-0.2115,-0.2167,-0.2221,-0.2264,-0.2301,-0.2344,-0.2338,-0.2355,-0.2345,-0.2333,-0.2347,-0.2364,-0.2322,-0.2321,-0.232,-0.2357,-0.2184,-0.2169,-0.2358,-0.2359,-0.236,-0.2321,0,-0.1887,-0.1943,-0.1989,-0.2046,-0.2077,-0.2142,-0.2184,-0.2243,-0.2288,-0.2338,-0.2359,-0.2381,-0.2373,-0.2383,-0.2399,-0.237,-0.2375,-0.2375,-0.2323,-0.2322,-0.218,-0.2167,-0.2363,-0.2323,-0.2323,-0.2323,-0.2324,0,-0.1875,-0.192,-0.1976,-0.206,-0.2082,-0.2126,-0.2213,-0.2257,-0.2335,-0.2371,-0.2419,-0.2432,-0.2464,-0.2447,-0.2443,-0.2444,-0.2412,-0.239,-0.2387,-0.221,-0.2152,-0.2299,-0.2327,-0.2327,-0.2326,-0.2326,-0.2326,0,-0.1817,-0.1905,-0.1954,-0.1983,-0.2083,-0.213,-0.2186,-0.2272,-0.2313,-0.2399,-0.243,-0.2476,-0.2488,-0.2483,-0.2441,-0.2449,-0.2415,-0.2414,-0.2227,-0.2214,-0.2362,-0.2356,-0.2408,-0.2408,-0.2409,-0.2409,-0.2409,0,-0.1777,-0.182,-0.194,-0.1964,-0.2028,-0.211,-0.218,-0.2246,-0.2332,-0.2364,-0.2445,-0.2455,-0.2499,-0.2481,-0.2452,-0.2328,-0.242,-0.223,-0.2192,-0.2382,-0.238,-0.2362,-0.2357,-0.2407,-0.2408,-0.2408,-0.2408,0,-0.1694,-0.1777,-0.1839,-0.1961,-0.2002,-0.2048,-0.2166,-0.2203,-0.2304,-0.2347,-0.2374,-0.2442,-0.2408,-0.2413,-0.2382,-0.2303,-0.2228,-0.216,-0.2348,-0.2322,-0.2029,-0.2028,-0.1958,-0.1951,-0.1946,-0.1941,-0.1937,0,-0.165,-0.1677,-0.1817,-0.1854,-0.1915,-0.2,-0.2047,-0.2171,-0.2204,-0.2306,-0.2302,-0.232,-0.2337,-0.2146,-0.2183,-0.2098,-0.207,-0.2025,-0.2047,-0.2012,-0.1983,-0.199,-0.1996,-0.1929,-0.1927,-0.1926,-0.1924,0,-0.1558,-0.1628,-0.1679,-0.1761,-0.1827,-0.1884,-0.1964,-0.1971,-0.209,-0.2206,-0.2153,-0.2115,-0.2063,-0.2022,-0.1952,-0.1904,-0.2058,-0.1968,-0.198,-0.2,-0.1976,-0.1954,-0.1966,-0.1905,-0.1908,-0.191,-0.1911,0,-0.1487,-0.1503,-0.1583,-0.1634,-0.1717,-0.1731,-0.1794,-0.1814,-0.1859,-0.198,-0.1952,-0.197,-0.2035,-0.1917,-0.1864,-0.1787,-0.1769,-0.172,-0.1744,-0.1766,-0.1719,-0.1661,-0.1452,0,0,0,0,0,-0.1402,-0.1403,-0.1445,-0.1492,-0.1567,-0.1609,-0.1717,-0.178,-0.19,-0.1806,-0.1872,-0.1813,-0.1725,-0.1743,-0.1619,-0.1779,-0.178,-0.163,-0.174,-0.18,-0.1822,-0.1782,0,0,0,0,0,0,-0.1344,-0.1381,-0.1394,-0.1358,-0.1358,-0.1418,-0.1476,-0.156,-0.1522,-0.1646,-0.16,-0.1695,-0.1631,-0.1748,-0.1576,-0.1579,-0.1609,-0.1656,-0.1651,-0.1787,-0.1807,-0.1825,-0.1792,0,0,0,0,0]},{"header":{"parameterUnit":"m.s-1","parameterCategory":2,"la1":30.2991,"la2":30.254,"lo1":-89.0895,"lo2":-89.0444,"dy":0.0017,"dx":0.0017,"nx":28,"ny":28,"refTime":"2025-03-19T21:00:00:Z","depth":"4","parameterNumber":3,"parameterNumberName":"V-component_of_CURRENTS"},"data":[0,0,0,0,0,0,0,0,0,0,0,0,0,0,0,0,0,0,0,0,0,0,0,0,0,0,0,0,0,0,0,0,0,0,0,0,0,0,0,0,0,0,0,0,0,0,0,0,0,0,0,0,0,0,0,0,0,0,-0.0344,-0.0343,0,-0.0329,-0.0329,-0.0329,-0.0293,-0.0292,-0.0291,-0.029,-0.0262,-0.0262,-0.0262,0,0,0,0,0,0,0,0,0,0,0,0,0,-0.0334,-0.0335,-0.0344,-0.0343,-0.0343,-0.0329,-0.0329,-0.0329,-0.0293,-0.0292,-0.0291,-0.029,-0.0262,-0.0262,-0.0262,0,0,0,0,0,0,0,0,0,0,0,0,0,-0.0332,-0.0335,-0.0344,-0.0323,-0.032,-0.0329,-0.0329,-0.0329,-0.0293,-0.0292,-0.0291,-0.0289,-0.0262,-0.0262,-0.0262,-0.0289,0,0,-0.0263,-0.0263,0,0,0,0,0,0,0,0,-0.0333,-0.0333,-0.0326,-0.0324,-0.0322,-0.031,-0.0315,-0.0314,-0.0294,-0.0305,-0.029,-0.0289,-0.0277,-0.0276,-0.0278,-0.0288,-0.0287,-0.0263,-0.0263,-0.0263,-0.0263,0,0,0,0,0,0,0,-0.0333,-0.0333,-0.0339,-0.0326,-0.0323,-0.0311,-0.031,-0.0315,-0.0299,-0.0304,-0.0301,-0.0297,-0.0276,-0.0278,-0.0277,-0.0286,-0.0263,-0.0263,-0.0263,-0.0263,-0.0324,-0.0326,0,0,0,0,0,0,-0.0334,-0.0334,-0.034,-0.0339,-0.0322,-0.0312,-0.0311,-0.0316,-0.03,-0.0295,-0.0299,-0.0296,-0.0279,-0.0277,-0.0276,-0.0291,-0.0263,-0.0263,-0.0263,-0.0323,-0.0325,-0.0326,0,0,0,0,0,0,-0.0334,-0.0335,-0.034,-0.0334,-0.0334,-0.0314,-0.032,-0.0317,-0.0316,-0.0295,-0.0291,-0.0301,-0.0278,-0.0276,-0.0295,-0.029,-0.0263,-0.0263,-0.0321,-0.0323,-0.0326,-0.0331,0,0,0,0,0,0,-0.0334,-0.0335,-0.0343,-0.0335,-0.0334,-0.0355,-0.0321,-0.0317,-0.0315,-0.0312,-0.0297,-0.0292,-0.0276,-0.0295,-0.0295,-0.029,-0.0263,-0.0319,-0.0322,-0.0325,-0.0329,-0.0333,-0.0337,0,0,0,0,0,-0.0334,-0.0353,-0.0344,-0.0344,-0.0344,-0.0356,-0.0356,-0.0337,-0.0317,-0.0329,-0.0322,-0.0293,-0.0313,-0.0297,-0.0296,-0.0291,-0.0318,-0.0321,-0.0325,-0.0327,-0.0332,-0.0337,0,0,0,0,0,0,-0.0353,-0.0351,-0.034,-0.0357,-0.0359,-0.0349,-0.0358,-0.0343,-0.0348,-0.0344,-0.0318,-0.0316,-0.033,-0.0324,-0.0307,-0.0322,-0.0309,-0.0312,-0.0311,-0.0316,-0.032,-0.029,-0.0263,0,0,0,0,0,-0.0361,-0.0375,-0.0369,-0.0383,-0.0386,-0.0373,-0.0374,-0.0365,-0.0364,-0.0363,-0.0353,-0.0347,-0.0347,-0.0342,-0.035,-0.036,-0.0313,-0.0359,-0.0363,-0.0366,-0.0345,-0.0269,-0.0263,-0.0338,-0.0338,-0.0338,0,0,-0.0371,-0.0372,-0.0379,-0.0388,-0.0387,-0.0403,-0.0372,-0.0383,-0.0386,-0.0362,-0.0372,-0.0368,-0.0358,-0.0369,-0.0373,-0.0358,-0.0328,-0.037,-0.0372,-0.035,-0.0272,-0.0264,-0.0256,-0.034,-0.034,-0.034,0,0,-0.0405,-0.0402,-0.0427,-0.0434,-0.0438,-0.043,-0.0435,-0.0433,-0.0421,-0.044,-0.0415,-0.04,-0.0424,-0.0389,-0.038,-0.0413,-0.0359,-0.0434,-0.0415,-0.0342,-0.0333,-0.0325,-0.0275,-0.0262,-0.0425,-0.0425,-0.0425,0,-0.0416,-0.0445,-0.0436,-0.0463,-0.0468,-0.0444,-0.047,-0.046,-0.0462,-0.0446,-0.0451,-0.0432,-0.042,-0.0387,-0.0398,-0.0413,-0.0379,-0.039,-0.0341,-0.0332,-0.0323,-0.0273,-0.0259,-0.0426,-0.0426,-0.0426,-0.0426,0,-0.0468,-0.0491,-0.0508,-0.0528,-0.0534,-0.0556,-0.0538,-0.0536,-0.052,-0.0498,-0.0475,-0.0454,-0.0431,-0.0429,-0.0423,-0.0363,-0.0363,-0.0357,-0.0314,-0.0315,-0.0264,-0.0249,-0.0427,-0.0427,-0.0426,-0.0426,0,0,-0.0491,-0.0536,-0.0542,-0.0561,-0.057,-0.0582,-0.058,-0.0563,-0.0545,-0.0527,-0.0495,-0.0468,-0.0434,-0.0421,-0.0396,-0.0324,-0.024,-0.0318,-0.0314,-0.0243,-0.0095,-0.0131,-0.0117,-0.0226,-0.0223,-0.022,-0.0089,0,-0.0532,-0.0597,-0.0601,-0.0648,-0.0676,-0.0651,-0.065,-0.0625,-0.0594,-0.0561,-0.0486,-0.0465,-0.0437,-0.0427,-0.0346,-0.0281,-0.0198,-0.0277,-0.0126,-0.0121,-0.0131,-0.01,-0.0211,-0.0077,-0.0074,-0.0071,-0.0069,0,-0.0578,-0.0615,-0.0677,-0.0704,-0.0711,-0.0732,-0.0709,-0.0704,-0.0634,-0.0606,-0.0538,-0.0492,-0.0394,-0.0375,-0.0203,-0.0261,-0.0171,-0.0103,-0.0096,-0.0108,-0.0128,-0.0075,-0.0041,-0.0043,-0.0045,-0.0047,-0.0049,0,-0.0602,-0.0662,-0.0712,-0.0727,-0.0754,-0.0765,-0.0767,-0.072,-0.0705,-0.0628,-0.0606,-0.0486,-0.0438,-0.0298,-0.017,-0.0183,0.0021,0.002,0.0087,0.0084,0.0082,0.0073,0.0177,0.0177,0.0177,0.0176,0.0176,0,-0.064,-0.0681,-0.0734,-0.0765,-0.0809,-0.0807,-0.0824,-0.0799,-0.0754,-0.073,-0.0634,-0.0583,-0.0414,-0.029,-0.0161,-0.0,0.0034,0.0111,0.0128,0.0068,0.0056,0.0093,0.0081,0.0181,0.018,0.0179,0.0178,0,-0.0661,-0.0698,-0.0762,-0.0812,-0.0831,-0.0862,-0.0886,-0.0885,-0.0837,-0.0801,-0.078,-0.0645,-0.0486,-0.0315,-0.0093,-0.0004,0.016,0.0216,0.0131,0.0137,0.0175,0.0161,0.0311,0.0311,0.0311,0.0311,0.0311,0,-0.0677,-0.0717,-0.0803,-0.0847,-0.088,-0.0925,-0.0952,-0.0931,-0.092,-0.0835,-0.0812,-0.0664,-0.0558,-0.0262,-0.0095,0.0155,0.0189,0.0266,0.0245,0.0193,0.0195,0.0181,0.0167,0.0312,0.0312,0.0312,0.0312,0,-0.0702,-0.074,-0.0792,-0.089,-0.0946,-0.0994,-0.1026,-0.1021,-0.0978,-0.0943,-0.0812,-0.0657,-0.0479,-0.0261,-0.0075,0.0104,0.0207,0.0268,0.0269,0.025,0.0196,0.0194,0.0181,0.0312,0.0312,0.0312,0.0312,0,-0.0714,-0.0759,-0.0837,-0.0914,-0.0994,-0.1039,-0.1052,-0.1025,-0.1002,-0.0897,-0.0857,-0.0655,-0.0535,-0.0286,-0.0113,0.005,0.0095,0.0143,0.0152,0.0153,0.0056,-0.004,0.0042,0,0,0,0,0,-0.0718,-0.0773,-0.0854,-0.0939,-0.1019,-0.1058,-0.1088,-0.1081,-0.1041,-0.0951,-0.0896,-0.0721,-0.045,-0.0329,-0.0166,-0.0128,0.0102,0.0064,0.0157,0.0314,0.0313,0.0222,0,0,0,0,0,0,-0.0724,-0.0804,-0.0849,-0.0942,-0.1,-0.1074,-0.1093,-0.1067,-0.0999,-0.0937,-0.0784,-0.0696,-0.0429,-0.0538,-0.0165,-0.0118,-0.0041,0.0196,0.0199,0.0314,0.0314,0.0313,0.0219,0,0,0,0,0]}]]